TimeCDT,TemperatureF,Dew PointF,Humidity,Sea Level PressureIn,VisibilityMPH,Wind Direction,Wind SpeedMPH,Gust SpeedMPH,PrecipitationIn,Events,Conditions,WindDirDegrees,DateUTC
12:55 AM,66.2,62.6,88,29.91,10.0,SSE,6.9,-,N/A,,Overcast,160,2013-04-24 05:55:00
1:55 AM,60.8,57.2,88,29.92,10.0,NW,13.8,-,N/A,,Overcast,320,2013-04-24 06:55:00
2:55 AM,53.6,51.8,94,29.93,10.0,NW,16.1,-,N/A,,Overcast,320,2013-04-24 07:55:00
3:15 AM,51.8,48.2,88,29.94,10.0,NW,17.3,-,N/A,,Overcast,310,2013-04-24 08:15:00
3:35 AM,50.0,46.4,87,29.94,10.0,NW,13.8,-,N/A,,Overcast,320,2013-04-24 08:35:00
3:55 AM,48.2,46.4,93,29.96,5.0,NW,15.0,-,N/A,,Overcast,310,2013-04-24 08:55:00
4:15 AM,46.4,46.4,100,29.98,2.5,WNW,11.5,-,N/A,,Overcast,300,2013-04-24 09:15:00
4:35 AM,46.4,46.4,100,29.99,3.0,NW,9.2,-,N/A,,Overcast,310,2013-04-24 09:35:00
4:55 AM,46.4,44.6,93,30.00,4.0,WNW,10.4,-,N/A,,Overcast,300,2013-04-24 09:55:00
5:15 AM,46.4,44.6,93,30.00,10.0,NW,11.5,-,N/A,,Overcast,310,2013-04-24 10:15:00
5:35 AM,44.6,44.6,100,30.02,5.0,WNW,15.0,-,N/A,Rain,Light Rain,300,2013-04-24 10:35:00
5:55 AM,44.6,44.6,100,30.05,4.0,WNW,12.7,-,N/A,Rain,Light Rain,300,2013-04-24 10:55:00
6:55 AM,44.6,44.6,100,30.05,9.0,NW,10.4,-,N/A,Rain,Light Rain,310,2013-04-24 11:55:00
7:55 AM,42.8,42.8,100,30.10,10.0,NW,13.8,-,N/A,Rain,Light Rain,310,2013-04-24 12:55:00
8:55 AM,44.6,41.0,87,30.15,10.0,NNW,11.5,25.3,N/A,,Overcast,330,2013-04-24 13:55:00
9:55 AM,44.6,41.0,87,30.18,10.0,NW,10.4,-,N/A,,Overcast,310,2013-04-24 14:55:00
10:55 AM,46.4,41.0,81,30.22,10.0,NNW,11.5,-,N/A,,Overcast,340,2013-04-24 15:55:00
11:55 AM,46.4,41.0,81,30.23,10.0,NNW,10.4,-,N/A,,Overcast,340,2013-04-24 16:55:00
12:55 PM,48.2,41.0,76,30.23,10.0,Variable,6.9,-,N/A,,Overcast,0,2013-04-24 17:55:00
1:55 PM,48.2,39.2,71,30.24,10.0,NNE,9.2,-,N/A,,Overcast,20,2013-04-24 18:55:00
2:55 PM,53.6,42.8,67,30.24,10.0,NNW,10.4,-,N/A,,Mostly Cloudy,330,2013-04-24 19:55:00
3:55 PM,55.4,42.8,63,30.24,10.0,North,10.4,-,N/A,,Mostly Cloudy,350,2013-04-24 20:55:00
4:55 PM,55.4,42.8,63,30.23,10.0,North,6.9,-,N/A,,Scattered Clouds,10,2013-04-24 21:55:00
5:55 PM,55.4,41.0,58,30.23,10.0,Variable,6.9,-,N/A,,Scattered Clouds,0,2013-04-24 22:55:00
6:55 PM,51.8,39.2,62,30.23,10.0,North,5.8,-,N/A,,Partly Cloudy,10,2013-04-24 23:55:00
7:55 PM,48.2,39.2,71,30.25,10.0,Calm,Calm,-,N/A,,Partly Cloudy,0,2013-04-25 00:55:00
8:55 PM,44.6,41.0,87,30.28,10.0,Calm,Calm,-,N/A,,Clear,0,2013-04-25 01:55:00
10:55 PM,42.8,41.0,93,30.30,10.0,Calm,Calm,-,N/A,,Clear,0,2013-04-25 03:55:00
11:55 PM,41.0,39.2,93,30.30,10.0,Calm,Calm,-,N/A,,Clear,0,2013-04-25 04:55:00